Change the Weather History Date:

Monday, June 9, 2014

  Actual Average Record
Temperature  
Mean Temperature 72 °F 66 °F  
Max Temperature 88 °F 81 °F 92 °F (1998)
Min Temperature 55 °F 52 °F 32 °F (1998)
Degree Days  
Heating Degree Days 0 1  
Month to date heating degree days 0 17  
Since 1 June heating degree days 0 17  
Since 1 July heating degree days 5207 5007  
Cooling Degree Days 7 3  
Month to date cooling degree days 41 22  
Year to date cooling degree days 75 55  
Since 1 June cooling degree days 41 22  
Growing Degree Days 23 (Base 50)    
Moisture  
Dew Point 44 °F    
Average Humidity 42    
Maximum Humidity 67    
Minimum Humidity 16    
Precipitation  
Precipitation 0.00 in 0.03 in 0.33 in (1981)
Month to date precipitation 0.00 0.27  
Year to date precipitation 2.38 4.52  
Snow  
Snow 0.00 in - - ()
Snow Depth 0.00 in    
Sea Level Pressure  
Sea Level Pressure 29.91 in    
Wind  
Wind Speed 8 mph (WNW)    
Max Wind Speed 26 mph    
Max Gust Speed 34 mph    
Visibility 10 miles    
Events      
T = Trace of Precipitation, MM = Missing Value Source: NWS Daily Summary

Daily Weather History Graph

Daily Weather History Graph

Search for Another Location

Airport or City:

Trip Planner

Search our weather history database for the weather conditions in past years. The results will help you decide how hot, cold, wet, or windy it might be!

Date:

Astronomy

Jun. 09, 2014 Rise Set
Actual Time 5:04 AM PDT 8:47 PM PDT
Civil Twilight 4:26 AM PDT 9:25 PM PDT
Nautical Twilight 3:34 AM PDT 10:17 PM PDT
Astronomical Twilight 2:23 AM PDT 11:29 PM PDT
Moon 5:02 PM PDT (6/9) 2:47 AM PDT (6/9)
Length of Visible Light 16h 59m
Length of Day
15h 42m
Waxing Gibbous, 86% of the Moon is Illuminated
Jun 9
Waxing Gibbous
Jun 12
Full
Jun 19
Last Quarter
Jun 27
New
Jul 5
First Quarter

Hourly Weather History & Observations

Time (PDT) Temp. Dew Point Humidity Pressure Visibility Wind Dir Wind Speed Gust Speed Precip Events Conditions
12:53 AM 69.1 °F 46.9 °F 45% 29.93 in 10.0 mi NW 6.9 mph - N/A   Clear
1:53 AM 66.0 °F 48.0 °F 52% 29.95 in 10.0 mi West 8.1 mph - N/A   Clear
2:53 AM 64.0 °F 46.0 °F 52% 29.96 in 10.0 mi South 4.6 mph - N/A   Clear
3:53 AM 59.0 °F 48.0 °F 67% 29.96 in 10.0 mi NE 9.2 mph - N/A   Clear
4:53 AM 60.1 °F 48.9 °F 67% 29.97 in 10.0 mi NE 5.8 mph - N/A   Clear
5:53 AM 63.0 °F 51.1 °F 65% 29.98 in 10.0 mi SSW 4.6 mph - N/A   Clear
6:53 AM 66.9 °F 50.0 °F 54% 29.99 in 10.0 mi SW 3.5 mph - N/A   Clear
8:53 AM 72.0 °F 48.0 °F 43% 29.99 in 10.0 mi NNW 16.1 mph - N/A   Clear
9:53 AM 75.9 °F 50.0 °F 40% 29.98 in 10.0 mi NNW 11.5 mph - N/A   Clear
10:53 AM 77.0 °F 48.9 °F 37% 29.96 in 10.0 mi WSW 9.2 mph - N/A   Clear
1:53 PM 84.0 °F 46.0 °F 26% 29.91 in 10.0 mi Variable 6.9 mph - N/A   Clear
2:53 PM 82.9 °F 42.1 °F 24% 29.89 in 10.0 mi Variable 3.5 mph - N/A   Clear
3:53 PM 84.9 °F 37.9 °F 19% 29.88 in 10.0 mi WNW 6.9 mph - N/A   Clear
4:53 PM 86.0 °F 35.1 °F 16% 29.86 in 10.0 mi SSW 5.8 mph - N/A   Clear
5:53 PM 87.1 °F 35.1 °F 16% 29.83 in 10.0 mi Calm Calm - N/A   Clear
6:53 PM 84.9 °F 42.1 °F 22% 29.83 in 10.0 mi SE 9.2 mph - N/A   Clear
7:53 PM 75.9 °F 44.1 °F 32% 29.84 in 10.0 mi NNW 11.5 mph - N/A   Clear
8:53 PM 68.0 °F 44.1 °F 42% 29.85 in 10.0 mi NW 6.9 mph - N/A   Clear
9:53 PM 68.0 °F 39.9 °F 36% 29.86 in 10.0 mi NNW 13.8 mph - N/A   Clear
10:53 PM 66.0 °F 39.9 °F 38% 29.87 in 10.0 mi NW 16.1 mph 27.6 mph N/A   Clear
11:53 PM 64.9 °F 41.0 °F 42% 29.88 in 10.0 mi NW 19.6 mph - N/A   Clear